Regional Weather Roundup
Issued by NWS Wilmington, NC

Home | Current Version | Previous Version | Text Only | Print | Product List | Glossary On
Versions: 1 2 3 4 5 6 7 8 9 10 11 12 13 14 15 16 17 18 19 20 21 22 23 24 25 26 27 28 29 30 31 32 33 34 35 36 37 38 39 40 41 42 43 44 45 46 47 48 49 50
000
ASUS42 KILM 231913
RWRILM
RWRILM
REGIONAL HOURLY WEATHER ROUNDUP
NATIONAL WEATHER SERVICE WILMINGTON NC
300 PM EDT FRI JUN 23 2017

NOTE: "FAIR" INDICATES FEW OR NO CLOUDS BELOW 12,000 FEET WITH NO
SIGNIFICANT WEATHER AND/OR OBSTRUCTIONS TO VISIBILITY.

...............WFO WILMINGTON COUNTY WARNING AREA...............

......COASTAL NC AND SC COUNTIES......

CITY           SKY/WX    TMP DP  RH WIND       PRES   REMARKS
WILMINGTON     MOSUNNY   88  76  67 SW15G23   29.98F HX  99
N MYRTLE BEACH SUNNY     85  76  74 SW20G26   29.99F HX  94
MYRTLE BEACH   MOSUNNY   86  77  74 S20       29.99F HX  97

......INLAND NC AND SC COUNTIES.......

CITY           SKY/WX    TMP DP  RH WIND       PRES   REMARKS
LUMBERTON      MOSUNNY   89  73  59 SW14      29.95F HX  97
ELIZABETHTOWN  NOT AVBL
WHITEVILLE     MOSUNNY   90  76  63 SW9       29.97F HX 101
FLORENCE       MOSUNNY   90  74  59 SW15G21   29.97F HX  99
DARLINGTON     MOSUNNY   90  73  57 SW15      29.97F HX  98
KINGSTREE      PTSUNNY   88  73  62 S6        29.98F HX  96
HARTSVILLE       N/A    N/A N/A N/A MISG        N/A
BENNETTSVILLE  FAIR      95  72  46 S12       29.95F HX 103
CONWAY         FAIR      90  75  62 S8        29.98F HX 100
GEORGETOWN     PTSUNNY   86  79  79 S13       30.01F HX  99
MARION         PTSUNNY   88  73  62 SW12      29.98F HAZE    HX  96

....................REST OF NORTH CAROLINA......................

.........EASTERN NC.........

CITY           SKY/WX    TMP DP  RH WIND       PRES   REMARKS
CAPE HATTERAS  CLOUDY    83  76  79 SW13G22   29.98F HX  91
JACKSONVILLE   CLOUDY    89  76  65 S15G21    29.96F HX 100
MOREHEAD CITY  MOSUNNY   85  79  82 SW21G28   29.98F HX  98
KENANSVILLE    CLOUDY    90  75  62 SW10G22   29.96F HX 100
NEW BERN       MOSUNNY   89  76  65 SW12      29.96F HX 100
ELIZABETH CITY MOSUNNY   87  78  74 S16G26    29.91F HX 100

.........CENTRAL NC.........

CITY           SKY/WX    TMP DP  RH WIND       PRES   REMARKS
RALEIGH DURHAM MOSUNNY   89  71  55 W18G32    29.92F HX  95
ROCKY MOUNT    SUNNY     90  74  59 SW14G24   29.91F HX  99
ROANOKE RAPIDS NOT AVBL
FAYETTEVILLE   MOSUNNY   93  73  52 SW17      29.94F HX 102
HOFFMAN        MOSUNNY   91  70  49 SW15G21   29.94F HX  96

.........WESTERN NC.........

CITY           SKY/WX    TMP DP  RH WIND       PRES   REMARKS
CHARLOTTE      PTSUNNY   88  69  53 SW17G24   29.96F HX  92
GREENSBORO     PTSUNNY   87  71  58 SW20G31   29.92F HX  93
HICKORY        NOT AVBL
BOONE          NOT AVBL
ASHEVILLE      NOT AVBL

.....................REST OF SOUTH CAROLINA.....................

.........EASTERN SC.........

CITY           SKY/WX    TMP DP  RH WIND       PRES   REMARKS
CHARLESTON     CLOUDY    89  76  65 SW15      30.00F HX 100
BEAUFORT MCAS  MOSUNNY   89  81  77 S10G18    30.00F HX 108
HILTON HEAD    MOSUNNY   86  77  74 S10G21    30.03F HX  97

.........CENTRAL SC.........

CITY           SKY/WX    TMP DP  RH WIND       PRES   REMARKS
COLUMBIA       PTSUNNY   94  70  45 SW10      29.95F HX 100
ORANGEBURG     PTSUNNY   90  73  57 SW8       29.98F HX  98
SUMTER SHAW    MOSUNNY   91  73  56 S12G17    29.95F HX  99

.........WESTERN SC.........

CITY           SKY/WX    TMP DP  RH WIND       PRES   REMARKS
GREENVILLE     NOT AVBL
ROCK HILL      MOSUNNY   88  69  53 SW12G22   29.96F HX  92
ANDERSON       MOSUNNY   89  71  55 SW15G25   29.96F HX  95
CLEMSON        NOT AVBL
GREENWOOD      MOSUNNY   88  70  55 S14G23    29.98F HX  93


...................COASTAL AND OFFSHORE REPORTS..................

................LOCAL PIERS AND NC RESERVE................


STATION/POSITION TIME  SKY/WX   TEMP    WIND        PRES    VSBY
                                AIR SEA DIR/SP/G
                 (UTC)          (F)     (DEG/KT/KT) (MB)    (MI)
JOHNY MRCER PIER 1848            82 80  190/ 18/ 23 1014.4F
NC RESRV MASNBRO 1745            86     250/  8     1017.0
OCEAN CREST PIER NOT AVBL
SPRINGMAID  PIER 1842                               1014.9F


................COASTAL AND OFFSHORE BUOYS................


STATION/POSITION TIME  SKY/WX   TEMP    WIND        PRES    VSBY
                                AIR SEA DIR/SP/G
                 (UTC)          (F)     (DEG/KT/KT) (MB)    (MI)
DIMNDSHOAL 41025 1850            81 81  220/ 19/ 21 1015.2F
WVE H/P(F/S)=  3/ 8 SWL H/P/D(F/S/D)=  2/180/ 8

CAPE LOOKOUT     1900            83     220/ 15/ 18 1015.1F
ONSLOW BAY 41036 NOT AVBL
ONSLOW BAY 41064 1808            80 81  230/ 16/ 21 1016.6F
ONSLOW BAY 41159 1843               81                N/A
WVE H/P(F/S)=  4/ 5

MASNBO INL 41110 1859               80                N/A
WVE H/P(F/S)=  4/ 4

WILM HARBR 41108 NOT AVBL
27SE WRITB 41037 1808            80 80  220/ 14/ 19 1016.4R
FRYING PAN 41013 1900            82 82  230/ 17/ 21 1016.5
SUNST NRSH 41024 1808            80 80  220/ 14/ 19 1016.1F
CAPRS NRSH 41029 1808            86 83  230/ 16/ 21 1017.0F
EDISTO     41004 1850            81 81  210/ 16/ 19 1016.9F
WVE H/P(F/S)=  4/ 8 SWL H/P/D(F/S/D)=  2/120/ 8



..........OFFSHORE BUOYS BEYOND 100 NM OFFSHORE...........
.....IN A TRIANGLE---HAT TO BERMUDA TO BAHAMAS TO HAT.....


STATION/POSITION TIME  SKY/WX   TEMP    WIND        PRES    VSBY
                                AIR SEA DIR/SP/G
                 (UTC)          (F)     (DEG/KT/KT) (MB)    (MI)
150E HAT   41001 1900            80 79  220/  8/ 12 1017.4
W BERMUDA  41048 1900            80 81  260/ 10/ 12 1020.1
ATLANTIC S 41049 1850            81 82   60/  8/ 10 1020.2F
WVE H/P(F/S)=  4/ 8 SWL H/P/D(F/S/D)=  3/100/ 8

E BAHAMAS  41046 1900            82 83   90/ 12/ 14 1018.0
NE BAHAMAS 41047 1900            82 83  120/  8/ 10 1020.0
120E CANVRL41010 1850            83 83  170/ 10/ 14 1018.3F
WVE H/P(F/S)=  4/ 8 SWL H/P/D(F/S/D)=  3/130/ 8


END



USA.gov is the U.S. government's official web portal to all federal, state and local government web resources and services.